[[{"header":{"parameterUnit":"m.s-1","parameterCategory":1,"la1":30.2991,"la2":30.254,"lo1":-89.0895,"lo2":-89.0444,"dy":0.0017,"dx":0.0017,"nx":28,"ny":28,"refTime":"2023-10-25T03:00:00:Z","depth":0,"parameterNumber":2,"parameterNumberName":"U-component_of_WINDS"},"data":[0,0,0,0,0,0,0,0,0,0,0,0,0,0,0,0,0,0,0,0,0,0,0,0,0,0,0,0,0,0,0,0,0,0,0,0,0,0,0,0,0,0,0,0,0,0,0,0,0,0,0,0,0,0,0,0,0,0,-5.2647,-5.2648,0,-5.2769,-5.2771,-5.2772,-5.2737,-5.2735,-5.2732,-5.273,-5.2854,-5.2859,-5.2865,0,0,0,0,0,0,0,0,0,0,0,0,0,-5.2384,-5.2389,-5.2647,-5.2648,-5.265,-5.2769,-5.2771,-5.2772,-5.2738,-5.2734,-5.2731,-5.2729,-5.2852,-5.2859,-5.2865,0,0,0,0,0,0,0,0,0,0,0,0,0,-5.2501,-5.239,-5.2646,-5.2647,-5.2648,-5.2769,-5.2771,-5.2773,-5.2738,-5.2734,-5.2731,-5.2727,-5.285,-5.2858,-5.2866,-5.2994,0,0,-5.2892,-5.2896,0,0,0,0,0,0,0,0,-5.2495,-5.2511,-5.2645,-5.2647,-5.2649,-5.2734,-5.2724,-5.2847,-5.2739,-5.2704,-5.273,-5.2725,-5.2817,-5.2828,-5.2859,-5.2999,-5.3005,-5.2893,-5.2898,-5.2902,-5.2904,0,0,0,0,0,0,0,-5.2487,-5.2506,-5.2695,-5.2647,-5.2649,-5.2641,-5.2654,-5.2747,-5.278,-5.2707,-5.2704,-5.2719,-5.2817,-5.2851,-5.2862,-5.3007,-5.2893,-5.29,-5.2905,-5.2909,-5.3261,-5.3265,0,0,0,0,0,0,-5.2477,-5.2499,-5.2691,-5.2699,-5.2561,-5.2649,-5.2663,-5.271,-5.2779,-5.2786,-5.2723,-5.2717,-5.2838,-5.2852,-5.2866,-5.302,-5.2902,-5.2909,-5.2914,-5.3256,-5.3262,-5.3266,0,0,0,0,0,0,-5.2472,-5.2495,-5.2686,-5.2598,-5.2622,-5.2658,-5.2711,-5.2715,-5.2748,-5.2791,-5.2797,-5.2751,-5.2836,-5.2854,-5.2963,-5.3024,-5.2913,-5.2921,-5.3251,-5.3258,-5.3264,-5.3329,0,0,0,0,0,0,-5.2464,-5.2493,-5.2541,-5.26,-5.2627,-5.278,-5.2715,-5.272,-5.2763,-5.2758,-5.2819,-5.2825,-5.2834,-5.295,-5.2971,-5.3033,-5.2928,-5.3246,-5.3254,-5.3262,-5.3321,-5.3337,-5.335,0,0,0,0,0,-5.2455,-5.2553,-5.2543,-5.2567,-5.2688,-5.2784,-5.28,-5.2808,-5.2768,-5.2817,-5.2845,-5.2823,-5.3015,-5.2962,-5.2985,-5.3051,-5.3242,-5.3252,-5.3261,-5.3315,-5.3334,-5.335,0,0,0,0,0,0,-5.2499,-5.2561,-5.255,-5.2671,-5.2723,-5.2778,-5.2839,-5.2828,-5.2891,-5.2883,-5.2891,-5.2905,-5.3017,-5.3045,-5.2985,-5.3179,-5.3123,-5.3137,-5.3156,-5.3174,-5.3188,-5.3177,-5.2935,0,0,0,0,0,-5.2523,-5.2596,-5.2646,-5.2748,-5.2775,-5.2803,-5.2845,-5.2848,-5.2902,-5.2923,-5.2959,-5.3012,-5.3084,-5.3131,-5.32,-5.3327,-5.334,-5.3384,-5.3398,-5.341,-5.3421,-5.3492,-5.3512,-5.3298,-5.3298,-5.3298,0,0,-5.2572,-5.2615,-5.266,-5.2758,-5.2798,-5.2874,-5.2821,-5.2903,-5.296,-5.2935,-5.304,-5.3069,-5.3129,-5.3248,-5.3302,-5.3275,-5.3485,-5.3422,-5.3431,-5.3436,-5.3504,-5.3525,-5.3543,-5.3304,-5.3303,-5.3302,0,0,-5.27,-5.2741,-5.283,-5.2873,-5.2936,-5.2955,-5.2977,-5.3035,-5.3054,-5.316,-5.3144,-5.3212,-5.3336,-5.338,-5.3418,-5.357,-5.3552,-5.3593,-5.3665,-5.3734,-5.3751,-5.3766,-5.3819,-5.3839,-5.3605,-5.3605,-5.3605,0,-5.2752,-5.2866,-5.2877,-5.2961,-5.3005,-5.299,-5.3081,-5.3122,-5.3204,-5.3235,-5.3204,-5.3361,-5.3401,-5.353,-5.3568,-5.36,-5.3625,-5.3583,-5.3748,-5.3763,-5.3777,-5.3828,-5.3848,-5.3609,-5.3609,-5.3608,-5.3608,0,-5.2928,-5.3008,-5.3073,-5.3154,-5.3205,-5.3293,-5.3318,-5.3369,-5.3369,-5.3392,-5.3502,-5.355,-5.3629,-5.3661,-5.3661,-5.3792,-5.3773,-5.3746,-5.3688,-5.3802,-5.385,-5.387,-5.3615,-5.3614,-5.3612,-5.3611,0,0,-5.3081,-5.3171,-5.3194,-5.3232,-5.3303,-5.3365,-5.3454,-5.3532,-5.3576,-5.3635,-5.3709,-5.3817,-5.3793,-5.3837,-5.3843,-5.3905,-5.4022,-5.387,-5.3871,-5.3895,-5.4169,-5.4187,-5.421,-5.4013,-5.4017,-5.402,-5.4164,0,-5.3214,-5.3368,-5.3383,-5.3522,-5.3596,-5.3586,-5.3663,-5.3716,-5.3741,-5.3809,-5.3837,-5.3913,-5.3876,-5.3903,-5.3963,-5.3994,-5.4076,-5.3985,-5.4081,-5.4084,-5.4063,-5.4235,-5.4254,-5.4387,-5.4183,-5.4186,-5.4188,0,-5.3388,-5.3454,-5.36,-5.3664,-5.3696,-5.3764,-5.3839,-5.3904,-5.3965,-5.398,-5.4032,-5.4031,-5.4123,-5.4066,-5.4194,-5.4131,-5.4172,-5.4194,-5.42,-5.4206,-5.414,-5.4244,-5.443,-5.4449,-5.4218,-5.4216,-5.4214,0,-5.3483,-5.3609,-5.3713,-5.3746,-5.3823,-5.3872,-5.3907,-5.3964,-5.4012,-5.4078,-5.4109,-5.4185,-5.4226,-5.4286,-5.4306,-5.4263,-5.4434,-5.4378,-5.4448,-5.4447,-5.448,-5.4477,-5.4673,-5.4512,-5.4512,-5.4511,-5.4511,0,-5.3628,-5.3718,-5.3758,-5.3821,-5.3923,-5.3941,-5.4041,-5.4073,-5.4125,-5.4196,-5.4193,-5.4259,-5.4283,-5.4354,-5.4372,-5.4475,-5.4494,-5.4508,-5.4511,-5.4507,-5.4505,-5.4531,-5.4521,-5.4517,-5.4515,-5.4514,-5.4513,0,-5.3749,-5.378,-5.3893,-5.3958,-5.3977,-5.4049,-5.4105,-5.4168,-5.4195,-5.4284,-5.4307,-5.4348,-5.4432,-5.446,-5.4561,-5.4573,-5.4693,-5.4689,-5.4672,-5.4672,-5.474,-5.4732,-5.4957,-5.4987,-5.4808,-5.481,-5.4811,0,-5.3838,-5.3907,-5.3982,-5.4029,-5.4066,-5.4143,-5.4192,-5.4215,-5.4266,-5.4343,-5.4397,-5.4481,-5.4548,-5.4683,-5.4723,-5.4801,-5.4798,-5.4872,-5.4809,-5.4804,-5.4797,-5.4792,-5.4799,-5.4882,-5.4884,-5.4885,-5.4886,0,-5.3992,-5.4005,-5.4076,-5.4154,-5.4214,-5.4276,-5.4336,-5.4376,-5.4407,-5.4466,-5.4553,-5.4606,-5.4711,-5.4794,-5.4875,-5.4911,-5.4905,-5.4907,-5.4927,-5.4921,-5.4908,-5.4915,-5.4702,-5.49,-5.4899,-5.4898,-5.4897,-5.4896,-5.4098,-5.416,-5.4223,-5.4303,-5.4352,-5.441,-5.4472,-5.4509,-5.4581,-5.4669,-5.4679,-5.4772,-5.4835,-5.4943,-5.4984,-5.5058,-5.5037,-5.5066,-5.5073,-5.508,-5.5084,-5.49,-5.5073,-5.5073,-5.5073,-5.5072,-5.5072,0,-5.4251,-5.4292,-5.4366,-5.4452,-5.4516,-5.4507,-5.4575,-5.4629,-5.4711,-5.4771,-5.4839,-5.494,-5.5022,-5.5071,-5.5153,-5.5204,-5.5203,-5.5224,-5.5219,-5.5228,-5.5099,-5.5072,-5.5224,-5.5224,-5.5224,-5.5224,-5.5224,-5.5224,-5.4337,-5.4441,-5.4463,-5.4592,-5.4633,-5.4725,-5.4765,-5.4818,-5.4866,-5.498,-5.5048,-5.508,-5.5136,-5.5224,-5.53,-5.5312,-5.5342,-5.5365,-5.5375,-5.5253,-5.5237,-5.5222,-5.5197,-5.5372,-5.5372,-5.5498,-5.5499,-5.55]},{"header":{"parameterUnit":"m.s-1","parameterCategory":1,"la1":30.2991,"la2":30.254,"lo1":-89.0895,"lo2":-89.0444,"dy":0.0017,"dx":0.0017,"nx":28,"ny":28,"refTime":"2023-10-25T03:00:00:Z","depth":0,"parameterNumber":3,"parameterNumberName":"V-component_of_WINDS"},"data":[0,0,0,0,0,0,0,0,0,0,0,0,0,0,0,0,0,0,0,0,0,0,0,0,0,0,0,0,0,0,0,0,0,0,0,0,0,0,0,0,0,0,0,0,0,0,0,0,0,0,0,0,0,0,0,0,0,0,1.9644,1.9644,0,1.9664,1.9664,1.9665,1.9666,1.9666,1.9666,1.9666,1.9682,1.9683,1.9683,0,0,0,0,0,0,0,0,0,0,0,0,0,1.9605,1.9605,1.9644,1.9644,1.9644,1.9664,1.9664,1.9665,1.9666,1.9666,1.9666,1.9665,1.9682,1.9683,1.9683,0,0,0,0,0,0,0,0,0,0,0,0,0,1.9623,1.9606,1.9644,1.9648,1.9648,1.9664,1.9664,1.9665,1.9666,1.9666,1.9666,1.9665,1.9682,1.9682,1.9683,1.9695,0,0,1.9686,1.9687,0,0,0,0,0,0,0,0,1.9622,1.9624,1.9647,1.9647,1.9648,1.9662,1.9657,1.9675,1.9666,1.9659,1.9666,1.9665,1.9675,1.9677,1.9681,1.9696,1.9697,1.9686,1.9687,1.9687,1.9688,0,0,0,0,0,0,0,1.9621,1.9623,1.9652,1.9647,1.9648,1.9648,1.965,1.966,1.9669,1.966,1.966,1.9663,1.9676,1.968,1.9682,1.9697,1.9686,1.9687,1.9688,1.9688,1.9726,1.9727,0,0,0,0,0,0,1.9619,1.9622,1.9651,1.9652,1.9634,1.9649,1.9651,1.9658,1.9669,1.967,1.9663,1.9663,1.9679,1.968,1.9682,1.9699,1.9687,1.9688,1.9689,1.9726,1.9726,1.9727,0,0,0,0,0,0,1.9618,1.9622,1.965,1.9637,1.9641,1.965,1.9657,1.9659,1.9663,1.9671,1.9672,1.9666,1.9679,1.9681,1.9693,1.9699,1.9689,1.9689,1.9725,1.9726,1.9727,1.9731,0,0,0,0,0,0,1.9617,1.9621,1.9626,1.9638,1.9642,1.9661,1.9658,1.9659,1.9665,1.9665,1.9674,1.9676,1.9679,1.9692,1.9694,1.9701,1.969,1.9725,1.9726,1.9726,1.9731,1.9732,1.9733,0,0,0,0,0,1.9616,1.9625,1.9626,1.963,1.9648,1.9662,1.9664,1.9669,1.9666,1.9671,1.9676,1.9675,1.9699,1.9693,1.9696,1.9702,1.9724,1.9725,1.9726,1.973,1.9732,1.9733,0,0,0,0,0,0,1.9611,1.9626,1.9628,1.9641,1.9651,1.9662,1.9668,1.967,1.9678,1.9678,1.9682,1.9684,1.9697,1.9701,1.9694,1.9716,1.9711,1.9713,1.9713,1.9715,1.9716,1.9715,1.9691,0,0,0,0,0,1.9612,1.9623,1.9635,1.9646,1.9651,1.9659,1.9665,1.9668,1.9677,1.968,1.9686,1.9694,1.9704,1.9709,1.9718,1.9732,1.9734,1.9738,1.9739,1.974,1.9741,1.9751,1.9753,1.973,1.973,1.973,0,0,1.9614,1.9623,1.9629,1.9645,1.9653,1.9664,1.9662,1.9672,1.968,1.9681,1.9694,1.9699,1.9708,1.9722,1.9728,1.9726,1.9749,1.9742,1.9742,1.9743,1.9752,1.9755,1.9757,1.9731,1.9731,1.973,0,0,1.9622,1.963,1.9641,1.965,1.9662,1.9668,1.9671,1.9683,1.9687,1.9701,1.9702,1.9712,1.9727,1.9734,1.974,1.9755,1.9755,1.9758,1.9765,1.9774,1.9776,1.9778,1.9784,1.9787,1.9759,1.9759,1.9759,0,1.9622,1.9639,1.9646,1.9658,1.9666,1.967,1.9682,1.9689,1.9703,1.9708,1.9705,1.9727,1.9733,1.975,1.9754,1.9758,1.9762,1.9756,1.9775,1.9777,1.9779,1.9785,1.9788,1.976,1.976,1.9759,1.9759,0,1.9639,1.9651,1.9658,1.9675,1.9683,1.9695,1.9704,1.9712,1.9715,1.9721,1.9736,1.9744,1.9756,1.976,1.9762,1.9778,1.9777,1.9775,1.9769,1.9781,1.9788,1.979,1.976,1.976,1.976,1.976,0,0,1.9642,1.9666,1.9668,1.9677,1.9693,1.9702,1.9714,1.9728,1.9735,1.9746,1.9757,1.9772,1.9771,1.9778,1.9781,1.9789,1.9803,1.9787,1.9787,1.979,1.9823,1.9825,1.9827,1.9804,1.9804,1.9805,1.9823,0,1.9653,1.9677,1.9686,1.9705,1.9717,1.9723,1.9734,1.9745,1.9752,1.9763,1.977,1.9782,1.9779,1.9784,1.9792,1.98,1.981,1.9798,1.9814,1.9814,1.9812,1.983,1.9831,1.9848,1.9825,1.9825,1.9826,0,1.9668,1.9682,1.9703,1.9721,1.9726,1.9736,1.9751,1.9761,1.9774,1.9779,1.9789,1.9792,1.9806,1.9801,1.982,1.9813,1.982,1.9824,1.9825,1.9827,1.9821,1.9833,1.9853,1.9856,1.9829,1.9829,1.9829,0,1.967,1.9693,1.971,1.9717,1.9737,1.9745,1.9753,1.9766,1.9775,1.9788,1.9794,1.9807,1.9815,1.9825,1.9833,1.9828,1.9852,1.9847,1.9856,1.9856,1.986,1.986,1.9883,1.9864,1.9864,1.9864,1.9864,0,1.9681,1.9694,1.9712,1.9722,1.9738,1.9748,1.9763,1.9771,1.9784,1.9796,1.9801,1.9812,1.9821,1.9834,1.9839,1.9856,1.9858,1.9863,1.9864,1.9862,1.9862,1.9867,1.9866,1.9865,1.9865,1.9865,1.9865,0,1.9685,1.9698,1.9717,1.9736,1.9741,1.9752,1.9768,1.9778,1.9787,1.9802,1.9806,1.9819,1.9835,1.9844,1.9861,1.9866,1.9884,1.9885,1.988,1.9881,1.989,1.989,1.9917,1.9922,1.99,1.99,1.99,0,1.9691,1.9702,1.9724,1.9734,1.9743,1.9758,1.9768,1.9779,1.9789,1.9808,1.9816,1.9832,1.9846,1.987,1.988,1.9895,1.9896,1.9905,1.9898,1.9897,1.9897,1.9897,1.9899,1.9906,1.9906,1.9906,1.9906,0,1.9702,1.9708,1.9723,1.9742,1.9755,1.9769,1.9783,1.9791,1.9804,1.9816,1.9833,1.9844,1.9865,1.9881,1.9897,1.9905,1.9908,1.9909,1.9912,1.991,1.9908,1.9911,1.9884,1.9907,1.9907,1.9907,1.9907,1.9907,1.9707,1.9719,1.9737,1.9754,1.9767,1.9781,1.9793,1.9805,1.982,1.9839,1.9845,1.9863,1.9878,1.9901,1.991,1.9924,1.9923,1.9927,1.9928,1.9929,1.993,1.9906,1.9927,1.9927,1.9927,1.9927,1.9927,0,1.9719,1.9732,1.9748,1.977,1.9784,1.9789,1.9806,1.9817,1.9834,1.9849,1.9863,1.9884,1.9901,1.9914,1.9932,1.9941,1.9943,1.9945,1.9944,1.9946,1.993,1.9926,1.9943,1.9943,1.9943,1.9943,1.9943,1.9943,1.9726,1.9746,1.9756,1.9783,1.9795,1.9815,1.9825,1.9838,1.9851,1.9875,1.989,1.9899,1.9914,1.9933,1.9949,1.9953,1.9959,1.9961,1.9965,1.9949,1.9947,1.9946,1.9942,1.9962,1.9962,1.998,1.9981,1.9981]}]]